[ hide orbit diagram ]
For accurate long-term ephemerides, please instead use our Horizons system.This orbit viewer was implemented using two-body methods, and hence should not be used for determining accurate long-term trajectories (over several years or decades) or planetary encounter circumstances.
[ revert to old Java-based viewer ]
Orbital Elements at Epoch 2458600.5 (2019-Apr-27.0) TDB
Reference: JPL 8 (heliocentric ecliptic J2000)
Element | Value | Uncertainty (1-sigma) | Units |
e | .1652371699046886 | 1.156e-07 | |
a | 2.614390570982307 | 6.558e-08 | au |
q | 2.182396072007687 | 2.8857e-07 | au |
i | 14.6687267569538 | 1.2665e-05 | deg |
node | 102.9025129939651 | 4.6757e-05 | deg |
peri | 192.394083039412 | 8.5624e-05 | deg |
M | 146.3821219533158 | 9.097e-05 | deg |
tp | 2457972.673464776905 (2017-Aug-07.17346478) | 0.00037443 | TDB |
period | 1544.024295210011 4.23 | 5.8096e-05 1.591e-07 | d yr |
n | .2331569529811281 | 8.7729e-09 | deg/d |
Q | 3.046385069956926 | 7.6416e-08 | au |
|
| | Orbit Determination Parameters
Additional Information
|
[ show covariance matrix ]
Physical Parameter Table
Parameter |
Symbol |
Value |
Units |
Sigma |
Reference |
Notes |
absolute magnitude |
H |
16.1 |
|
n/a |
MPO455183 |
|
|
295301 (2008 GX112) Discovered 2008-Apr-13 by CSS at Catalina |
Reference: 20110912/Numbers.arc | Last Updated: 2011-09-14 |
|
|